International Skating Union - Official Site

Essent ISU World Allround Championships 2013
February 16-17, 2013

Draw | Lap Times | Index | Classification

Referee: Knut Arthur  OLSEN  (NOR)
Starter: Jirku  JÄÄSKELÄINEN  (FIN)
StartTime: EndTime: Air Temp: Ice Temp: Humidity:
15:14 15:48 16.4℃ -9.9℃ 24.2
Result 5000m Ladies
Rankings as of Feb 17 2013 3:48PM
Rank: No.: Name: Nation: Time: Behind: Points:
1 18 Ireen  Wüst NED NED 7:05.13200m - 20.20 - (20.2)
600m - 52.83 - (32.6)
1000m - 1:25.99 - (33.1)
1400m - 1:59.55 - (33.5)
1800m - 2:32.71 - (33.1)
2200m - 3:06.41 - (33.7)
2600m - 3:40.04 - (33.6)
3000m - 4:13.98 - (33.9)
3400m - 4:47.77 - (33.7)
3800m - 5:21.59 - (33.8)
4200m - 5:55.82 - (34.2)
4600m - 6:30.28 - (34.4)
5000m - 7:05.13 - (34.8)
42.513
2 16 Diane  Valkenburg NED NED 7:07.07200m - 21.09 - (21.0)
600m - 54.26 - (33.1)
1000m - 1:28.20 - (33.9)
1400m - 2:01.75 - (33.5)
1800m - 2:35.28 - (33.5)
2200m - 3:08.76 - (33.4)
2600m - 3:42.18 - (33.4)
3000m - 4:15.99 - (33.8)
3400m - 4:49.54 - (33.5)
3800m - 5:23.16 - (33.6)
4200m - 5:57.17 - (34.0)
4600m - 6:31.64 - (34.4)
5000m - 7:07.07 - (35.4)
1.94 42.707
3 17 Linda  de Vries NED NED 7:09.23200m - 20.59 - (20.5)
600m - 54.00 - (33.4)
1000m - 1:27.33 - (33.3)
1400m - 2:00.55 - (33.2)
1800m - 2:33.59 - (33.0)
2200m - 3:06.81 - (33.2)
2600m - 3:40.53 - (33.7)
3000m - 4:14.73 - (34.2)
3400m - 4:49.11 - (34.3)
3800m - 5:23.66 - (34.5)
4200m - 5:58.62 - (34.9)
4600m - 6:33.76 - (35.1)
5000m - 7:09.23 - (35.4)
4.10 42.923
4 10 Masako  Hozumi JPN JPN 7:10.19200m - 21.28 - (21.2)
600m - 54.40 - (33.1)
1000m - 1:28.04 - (33.6)
1400m - 2:01.94 - (33.9)
1800m - 2:36.37 - (34.4)
2200m - 3:10.91 - (34.5)
2600m - 3:45.49 - (34.5)
3000m - 4:20.25 - (34.7)
3400m - 4:54.55 - (34.3)
3800m - 5:28.51 - (33.9)
4200m - 6:02.23 - (33.7)
4600m - 6:36.12 - (33.8)
5000m - 7:10.19 - (34.0)
5.06 43.019
5 28 Yekaterina  Shikhova RUS RUS 7:16.48200m - 21.18 - (21.1)
600m - 54.82 - (33.6)
1000m - 1:29.32 - (34.5)
1400m - 2:03.32 - (34.0)
1800m - 2:37.37 - (34.0)
2200m - 3:11.79 - (34.4)
2600m - 3:46.49 - (34.7)
3000m - 4:21.15 - (34.6)
3400m - 4:55.85 - (34.6)
3800m - 5:30.36 - (34.5)
4200m - 6:05.34 - (34.9)
4600m - 6:41.10 - (35.7)
5000m - 7:16.48 - (35.3)
11.35 43.648
6 21 Ida  Njåtun NOR NOR 7:17.26200m - 21.02 - (21.0)
600m - 54.36 - (33.3)
1000m - 1:28.08 - (33.7)
1400m - 2:01.92 - (33.8)
1800m - 2:35.55 - (33.6)
2200m - 3:09.35 - (33.8)
2600m - 3:43.48 - (34.1)
3000m - 4:18.07 - (34.5)
3400m - 4:52.96 - (34.8)
3800m - 5:28.51 - (35.5)
4200m - 6:04.53 - (36.0)
4600m - 6:40.89 - (36.3)
5000m - 7:17.26 - (36.3)
12.13 43.726
7 26 Yevgeniya  Dmitriyeva RUS RUS 7:19.03200m - 21.99 - (21.9)
600m - 56.16 - (34.1)
1000m - 1:30.10 - (33.9)
1400m - 2:04.20 - (34.1)
1800m - 2:38.64 - (34.4)
2200m - 3:13.12 - (34.4)
2600m - 3:47.64 - (34.5)
3000m - 4:22.54 - (34.9)
3400m - 4:57.60 - (35.0)
3800m - 5:32.53 - (34.9)
4200m - 6:07.61 - (35.0)
4600m - 6:43.14 - (35.5)
5000m - 7:19.03 - (35.8)
13.90 43.903
8 14 Lotte  van Beek NED NED 7:32.59200m - 20.52 - (20.5)
600m - 53.79 - (33.2)
1000m - 1:28.11 - (34.3)
1400m - 2:03.05 - (34.9)
1800m - 2:38.92 - (35.8)
2200m - 3:15.10 - (36.1)
2600m - 3:51.52 - (36.4)
3000m - 4:27.93 - (36.4)
3400m - 5:04.88 - (36.9)
3800m - 5:41.84 - (36.9)
4200m - 6:18.85 - (37.0)
4600m - 6:55.79 - (36.9)
5000m - 7:32.59 - (36.8)
27.46 45.259